Tracking 26931 objects as of 6-Feb-2023
HD Live streaming from Space Station
objects crossing your sky now

FREGAT R/B

Track FREGAT R/B now!


NORAD ID: 28133
Int'l Code: 2003-059B
Perigee: 4,510.7 km
Apogee: 35,708.8 km
Inclination: 23.6 °
Period: 714.8 minutes
Semi major axis: 26480 km
RCS: 9.0569 m2 (large)
Launch date: December 27, 2003
Source: Commonwealth of Independent States (former USSR) (CIS)
Launch site: TYURATAM MISSILE AND SPACE COMPLEX (TTMTR)

Note: This is a ROCKET BODY
Your satellite tracking list
Your tracking list is empty




NASA's NSSDC Master Catalog

Two Line Element Set (TLE):
1 28133U 03059B   23036.68501967  .00000086  00000-0  00000-0 0  9994
2 28133  23.6430  82.9293 5890703  51.8169 348.0800  2.01468355140699
Source of the keplerian elements: AFSPC